Location: Friedrichshafen
(47.6598°N, 9.4819°E)
Time: 16:57:01
(UTC+01:00)

ISS - Pass Details

Date: 11 February 2018
Orbit: 402 x 407 km, 51.6° (Epoch: 25 February)

Event Time Altitude Azimuth Distance (km) Brightness Sun altitude
Rises 19:24:14 0° 286° (WNW) 2,320 1.4 -18.2°
Reaches altitude 10° 19:26:45 10° 267° (W) 1,457 0.3 -18.6°
Maximum altitude 19:29:03 18° 222° (SW) 1,071 -1.2 -19.0°
Drops below altitude 10° 19:31:20 10° 177° (S) 1,452 -1.1 -19.4°
Enters shadow 19:31:22 10° 177° (S) 1,459 -1.1 -19.4°
